Location: Carri�res
(48.9069°N, 2.1792°E)
Time: 08:57:53
(UTC+00:00)

Cosmos 1503 Rocket - Visible Passes

Search period start: 09 May 2021 00:00
Search period end: 19 May 2021 00:00
Orbit: 752 x 791 km, 74.0° (Epoch: 09 May)

Date Brightness Start Highest point End Pass type
(mag) Time Alt. Az. Time Alt. Az. Time Alt. Az.
09 May 4.1 20:15:35 10° S 20:20:35 53° ESE 20:25:40 10° NNE visible
09 May 6.1 21:58:40 10° WSW 22:03:02 27° NW 22:07:28 10° N visible
10 May 5.4 21:21:58 10° SW 21:26:49 39° WNW 21:31:44 10° NNE visible
11 May 4.6 20:45:35 10° SW 20:50:42 60° WNW 20:55:53 10° NNE visible
11 May 7.0 22:31:36 10° WNW 22:34:01 13° NW 22:36:28 10° NNW visible
12 May 4.0 20:09:29 10° SSW 20:14:40 88° ESE 20:19:56 10° NNE visible
12 May 6.8 21:54:00 10° W 21:57:35 18° NW 22:01:11 10° N visible
13 May 7.7 03:12:19 10° NNE 03:13:13 10° NE 03:14:08 10° NE visible
13 May 6.3 21:16:56 10° WSW 21:21:14 26° NW 21:25:37 10° N visible
14 May 5.7 20:40:12 10° SW 20:45:00 38° WNW 20:49:54 10° N visible
15 May 4.8 20:03:46 10° SW 20:08:52 57° WNW 20:14:03 10° NNE visible
15 May 7.3 21:49:59 10° WNW 21:52:15 13° NW 21:54:32 10° NNW visible
16 May 7.3 03:04:55 10° N 03:07:58 15° NE 03:11:02 10° ENE visible
16 May 7.0 21:12:19 10° W 21:15:48 18° NW 21:19:19 10° N visible
17 May 7.8 02:30:07 10° NNE 02:31:28 11° NE 02:32:50 10° NE visible
17 May 6.6 20:35:11 10° WSW 20:39:27 25° NW 20:43:45 10° N visible
18 May 5.9 19:58:25 10° WSW 20:03:12 36° WNW 20:08:03 10° N visible
